Location: Central Falls
(41.8900°N, 71.3929°W)
Time: 13:16:23
(UTC+00:00)

Vanguard 1 - All Passes

Search period start: 03 December 2023 00:00
Search period end: 13 December 2023 00:00
Orbit: 651 x 3828 km, 34.3° (Epoch: 01 December)

Date Brightness Start Highest point End Pass type
(mag) Time Alt. Az. Time Alt. Az. Time Alt. Az.
03 Dec - 00:55:49 10° WSW 01:15:32 70° S 01:38:26 10° E visible
03 Dec - 03:19:45 10° W 03:42:04 61° SSW 04:01:41 10° SE visible
03 Dec - 05:46:53 10° W 06:05:51 34° SW 06:20:24 10° SSE visible
03 Dec - 20:37:50 10° S 20:48:41 28° SE 21:04:22 10° E daylight
03 Dec - 22:55:01 10° SW 23:10:43 58° SSE 23:33:17 10° E visible
04 Dec - 01:16:26 10° W 01:36:31 70° S 01:59:14 10° ESE visible
04 Dec - 03:40:44 10° W 04:02:44 56° SSW 04:21:50 10° SE visible
04 Dec - 06:08:50 10° W 06:25:45 27° SW 06:39:08 10° S visible
04 Dec - 20:56:53 10° SSW 21:08:31 36° SE 21:26:10 10° E daylight
04 Dec - 23:15:12 10° WSW 23:31:21 63° SSE 23:54:22 10° E visible
05 Dec - 01:37:07 10° W 01:57:29 69° S 02:19:57 10° ESE visible
05 Dec - 04:01:47 10° W 04:23:15 50° SSW 04:41:44 10° SE visible
05 Dec - 06:31:30 10° W 06:45:31 21° SW 06:57:06 10° SSW night (unlit)
05 Dec - 19:04:46 10° SE 19:09:01 12° ESE 19:13:58 10° ESE daylight
05 Dec - 21:16:21 10° SSW 21:28:31 43° SE 21:47:40 10° E visible
05 Dec - 23:35:32 10° WSW 23:52:06 67° S 00:15:24 10° E visible
06 Dec - 01:57:51 10° W 02:18:24 66° SSW 02:40:31 10° ESE visible
06 Dec - 04:22:58 10° W 04:43:35 43° SW 05:01:20 10° SSE visible
06 Dec - 06:55:44 10° W 07:05:12 14° WSW 07:13:32 10° SSW night (unlit)
06 Dec - 19:21:18 10° SSE 19:28:31 18° SE 19:38:15 10° E daylight
06 Dec - 21:36:05 10° SW 21:48:42 50° SSE 22:08:59 10° E visible
06 Dec - 23:55:58 10° WSW 00:12:57 69° S 00:36:24 10° E visible
07 Dec - 02:18:38 10° W 02:39:14 61° SSW 03:00:55 10° SE visible
07 Dec - 04:44:24 10° W 05:03:46 36° SW 05:20:34 10° SSE visible
07 Dec - 19:39:35 10° S 19:48:09 25° SE 20:00:48 10° E daylight
07 Dec - 21:56:03 10° SW 22:09:04 56° SSE 22:30:13 10° E visible
08 Dec - 00:16:29 10° W 00:33:52 69° S 00:57:18 10° ESE visible
08 Dec - 02:39:29 10° W 02:59:58 56° SSW 03:21:07 10° SE visible
08 Dec - 05:06:12 10° W 05:23:49 29° SW 05:39:19 10° S visible
08 Dec - 19:58:34 10° SSW 20:07:54 32° SE 20:22:40 10° E daylight
08 Dec - 22:16:11 10° WSW 22:29:35 62° SSE 22:51:22 10° E visible
09 Dec - 00:37:04 10° W 00:54:47 68° S 01:18:07 10° ESE visible
09 Dec - 03:00:24 10° W 03:20:33 50° SSW 03:41:03 10° SE visible
09 Dec - 05:28:39 10° W 05:43:45 22° SW 05:57:19 10° S visible
09 Dec - 20:17:59 10° SSW 20:27:50 39° SE 20:44:12 10° E daylight
09 Dec - 22:36:26 10° WSW 22:50:14 65° SSE 23:12:30 10° E visible
10 Dec - 00:57:40 10° W 01:15:39 65° SSW 01:38:47 10° ESE visible
10 Dec - 03:21:28 10° W 03:41:01 43° SW 04:00:41 10° SSE visible
10 Dec - 05:52:26 10° W 06:03:36 16° SW 06:13:56 10° SSW visible
10 Dec - 18:23:56 10° SSE 18:28:38 14° SE 18:34:35 10° E daylight
10 Dec - 20:37:40 10° SW 20:47:55 46° SSE 21:05:33 10° E daylight
10 Dec - 22:56:47 10° WSW 23:10:59 67° S 23:33:34 10° E visible
11 Dec - 01:18:20 10° W 01:36:29 61° SSW 01:59:15 10° SE visible
11 Dec - 03:42:45 10° W 04:01:21 36° SW 04:19:54 10° SSE visible
11 Dec - 18:41:48 10° S 18:48:14 20° SE 18:57:28 10° E daylight
11 Dec - 20:57:36 10° SW 21:08:11 53° SSE 21:26:47 10° E daylight
11 Dec - 23:17:13 10° W 23:31:47 68° S 23:54:33 10° ESE visible
12 Dec - 01:39:04 10° W 01:57:15 55° SSW 02:19:30 10° SE visible
12 Dec - 04:04:25 10° W 04:21:34 29° SW 04:38:37 10° S visible
12 Dec - 19:00:39 10° S 19:07:58 27° SE 19:19:24 10° E daylight
12 Dec - 21:17:40 10° WSW 21:28:35 59° SSE 21:47:58 10° E visible
